Commodore Clipper — C6QQ3 — position and weather

sailwx.info

Track history (hours):
 
Tides and Currents Weather Stations Pressure Air Temp Water Temp Dewpoint Dewpoint Depression Visibility Wind Speed Wind Dir Waves Ship Positions

Commodore Clipper

Operator: Condor Marine Services

Last reported at 2020-Jan-25 01:01 UTC. Time now 2020-Jan-25 04:53 UTC.
Position N 49°45' W 002°01'.

Length 130 m; draft 5.4 m.

Type: Ship. MMSI: 308094000.

Date/timePositionNaut miles runAvg speedWind from/ knotsBaromVisibWave heightAir tempDewpointWater temp
2020-Jan-25 01:01N 49°45' W 002°01'611.7
2020-Jan-25 00:30N 49°39' W 002°05'2315.7
2020-Jan-24 23:01N 49°18' W 002°20'11 4.4
2020-Jan-24 20:30N 49°11' W 002°07'0 0.0
2020-Jan-24 20:00N 49°11' W 002°07'1 1.1
2020-Jan-24 19:31N 49°10' W 002°07'24 6.7
2020-Jan-24 16:00N 49°27' W 002°32'9 9.1
2020-Jan-24 15:00N 49°30' W 002°18'1312.8
2020-Jan-24 14:00N 49°40' W 002°06'5618.2
2020-Jan-24 10:56N 50°27' W 001°18'818.0
2020-Jan-24 10:29N 50°33' W 001°11'817.4
2020-Jan-24 10:01N 50°40' W 001°04'9 3.4
2020-Jan-24 07:30N 50°49' W 001°06'0 0.0
2020-Jan-24 07:00N 50°49' W 001°06'31 8.5
2020-Jan-24 03:24N 50°20' W 001°22'4114.0
2020-Jan-24 00:30N 49°47' W 001°58'1010.4
2020-Jan-23 23:31N 49°38' W 002°07'2315.0
2020-Jan-23 22:01N 49°17' W 002°20'13 2.4
2020-Jan-23 16:30N 49°27' W 002°32'3 2.9
2020-Jan-23 15:30N 49°26' W 002°28'1912.8
2020-Jan-23 14:00N 49°38' W 002°06'2818.4
2020-Jan-23 12:31N 50°03' W 001°47'2919.0
2020-Jan-23 11:00N 50°26' W 001°19'1818.6
2020-Jan-23 10:01N 50°41' W 001°03'8 2.0
2020-Jan-23 06:00N 50°48' W 001°07'611.4
2020-Jan-23 05:31N 50°44' W 001°02'103 9.8
2020-Jan-22 19:01N 49°10' W 002°08'18 4.6
2020-Jan-22 15:00N 49°28' W 002°13'3718.3
2020-Jan-22 13:00N 50°00' W 001°46'3819.0
2020-Jan-22 11:00N 50°32' W 001°12'18 8.9
2020-Jan-22 09:00N 50°49' W 001°06'0 0.0
2020-Jan-22 08:30N 50°49' W 001°06'31 6.2
2020-Jan-22 03:33N 50°20' W 001°24'5014.1
2020-Jan-22 00:01N 49°38' W 002°06'20 5.8
2020-Jan-21 20:30N 49°25' W 002°29'34 4.5
2020-Jan-21 13:00N 49°50' W 001°55'2919.0
2020-Jan-21 11:28N 50°15' W 001°30'2119.0
2020-Jan-21 10:22N 50°32' W 001°12'17 5.9
2020-Jan-21 07:30N 50°49' W 001°06'0 0.0
2020-Jan-21 07:00N 50°49' W 001°06'5810.4
2020-Jan-21 01:28N 49°57' W 001°47'816.7
2020-Jan-21 01:00N 49°51' W 001°54'34 8.5
2020-Jan-20 21:00N 49°27' W 002°32'23 9.3
2020-Jan-20 18:30N 49°11' W 002°07'0 0.0
2020-Jan-20 17:00N 49°11' W 002°07'17 8.6
2020-Jan-20 15:00N 49°27' W 002°14'2214.6
2020-Jan-20 13:31N 49°47' W 002°00'3117.7
2020-Jan-20 11:45N 50°14' W 001°35'1618.5
2020-Jan-20 10:53N 50°26' W 001°19'2216.2
2020-Jan-20 09:31N 50°47' W 001°06'2 3.8
2020-Jan-20 09:01N 50°49' W 001°06'0 0.0
2020-Jan-20 07:01N 50°49' W 001°06'0 0.0
2020-Jan-20 06:01N 50°49' W 001°06'0 0.0
2020-Jan-20 05:30N 50°49' W 001°06'0 0.0
2020-Jan-20 05:00N 50°49' W 001°06'0 0.0
2020-Jan-20 03:31N 50°49' W 001°06'0 0.0
2020-Jan-20 02:31N 50°49' W 001°06'0 0.0
2020-Jan-20 01:31N 50°49' W 001°06'0 0.0
2020-Jan-20 01:01N 50°49' W 001°06'0 0.0
2020-Jan-19 23:31N 50°49' W 001°06'0 0.0
2020-Jan-19 21:01N 50°49' W 001°06'0 0.0
2020-Jan-19 19:00N 50°49' W 001°06'0 0.0
2020-Jan-19 18:30N 50°49' W 001°06'0 0.0
2020-Jan-19 16:30N 50°49' W 001°06'0 0.0
2020-Jan-19 13:00N 50°49' W 001°06'0 0.0
2020-Jan-19 11:01N 50°49' W 001°06'0 0.0
2020-Jan-19 10:31N 50°49' W 001°06'0 0.0
2020-Jan-19 10:01N 50°49' W 001°06'5 3.3
2020-Jan-19 08:31N 50°44' W 001°04'5313.0
2020-Jan-19 04:27N 49°59' W 001°47'1212.3
2020-Jan-19 03:30N 49°50' W 001°58'3112.5
2020-Jan-19 01:00N 49°21' W 002°18'510.7
2020-Jan-19 00:31N 49°16' W 002°21'10 4.1
2020-Jan-18 21:58N 49°11' W 002°07'4 8.2
2020-Jan-18 21:30N 49°10' W 002°13'1616.2
2020-Jan-18 20:30N 49°23' W 002°27'5 5.2
2020-Jan-18 19:28N 49°27' W 002°32'3 2.4
2020-Jan-18 18:01N 49°26' W 002°27'713.6
2020-Jan-18 17:31N 49°30' W 002°18'1413.9
2020-Jan-18 16:31N 49°41' W 002°05'2614.9
2020-Jan-18 14:44N 50°03' W 001°43'5112.1
2020-Jan-18 10:28N 50°49' W 001°06'0 0.0
2020-Jan-18 09:58N 50°49' W 001°06'56 9.4
2020-Jan-18 03:56N 49°59' W 001°48'3417.8
2020-Jan-18 02:00N 49°29' W 002°13'1616.3
2020-Jan-18 01:00N 49°13' W 002°20'9 8.8
2020-Jan-17 23:58N 49°11' W 002°07'23 5.8
2020-Jan-17 19:58N 49°27' W 002°32'0 0.2
2020-Jan-17 18:30N 49°27' W 002°31'1414.2
2020-Jan-17 17:30N 49°34' W 002°11'1918.7
2020-Jan-17 16:30N 49°49' W 001°56'6713.4
2020-Jan-17 11:30N 50°49' W 001°07'1 0.2
2020-Jan-17 08:30N 50°49' W 001°06'9 5.8
2020-Jan-17 07:00N 50°40' W 001°04'6514.4
2020-Jan-17 02:30N 49°46' W 002°00'3618.2
2020-Jan-17 00:30N 49°12' W 002°19'16 2.2
2020-Jan-16 17:31N 49°28' W 002°23'917.9
2020-Jan-16 17:01N 49°33' W 002°12'6615.2
2020-Jan-16 12:38N 50°27' W 001°12'213.0
2020-Jan-16 12:30N 50°28' W 001°11'612.8
2020-Jan-16 12:00N 50°34' W 001°06'1312.6
2020-Jan-16 11:01N 50°46' W 001°06'2 1.5
2020-Jan-16 09:28N 50°49' W 001°06'0 0.0
2020-Jan-16 08:28N 50°49' W 001°06'5710.0
2020-Jan-16 02:46N 49°58' W 001°48'517.6
2020-Jan-16 02:30N 49°55' W 001°52'1818.0
2020-Jan-16 01:30N 49°39' W 002°06'2914.7
2020-Jan-15 23:30N 49°10' W 002°08'1 0.9
2020-Jan-15 22:27N 49°11' W 002°07'5 2.0
2020-Jan-15 20:00N 49°10' W 002°14'816.6
2020-Jan-15 19:30N 49°16' W 002°22'13 8.2
2020-Jan-15 17:58N 49°27' W 002°32'4411.1
2020-Jan-15 14:00N 49°59' W 001°44'3613.9
2020-Jan-15 11:26N 50°27' W 001°10'2211.0
2020-Jan-15 09:28N 50°49' W 001°06'0 0.0
2020-Jan-15 08:28N 50°49' W 001°06'0 0.0
2020-Jan-15 04:58N 50°49' W 001°06'0 0.0
2020-Jan-15 03:28N 50°49' W 001°06'0 0.0
2020-Jan-15 02:28N 50°49' W 001°06'0 0.0
2020-Jan-15 01:28N 50°49' W 001°06'  
Track history (hours):
 
Tides and Currents Weather Stations Pressure Air Temp Water Temp Dewpoint Dewpoint Depression Visibility Wind Speed Wind Dir Waves Ship Positions

Commodore Clipper

Operator: Condor Marine Services

Last reported at 2020-Jan-25 01:01 UTC. Time now 2020-Jan-25 04:53 UTC.
Position N 49°45' W 002°01'.

Length 130 m; draft 5.4 m.

Type: Ship. MMSI: 308094000.

Date/timePositionNaut miles runAvg speedWind from/ knotsBaromVisibWave heightAir tempDewpointWater temp
2020-Jan-25 01:01N 49°45' W 002°01'611.7
2020-Jan-25 00:30N 49°39' W 002°05'2315.7
2020-Jan-24 23:01N 49°18' W 002°20'11 4.4
2020-Jan-24 20:30N 49°11' W 002°07'0 0.0
2020-Jan-24 20:00N 49°11' W 002°07'1 1.1
2020-Jan-24 19:31N 49°10' W 002°07'24 6.7
2020-Jan-24 16:00N 49°27' W 002°32'9 9.1
2020-Jan-24 15:00N 49°30' W 002°18'1312.8
2020-Jan-24 14:00N 49°40' W 002°06'5618.2
2020-Jan-24 10:56N 50°27' W 001°18'818.0
2020-Jan-24 10:29N 50°33' W 001°11'817.4
2020-Jan-24 10:01N 50°40' W 001°04'9 3.4
2020-Jan-24 07:30N 50°49' W 001°06'0 0.0
2020-Jan-24 07:00N 50°49' W 001°06'31 8.5
2020-Jan-24 03:24N 50°20' W 001°22'4114.0
2020-Jan-24 00:30N 49°47' W 001°58'1010.4
2020-Jan-23 23:31N 49°38' W 002°07'2315.0
2020-Jan-23 22:01N 49°17' W 002°20'13 2.4
2020-Jan-23 16:30N 49°27' W 002°32'3 2.9
2020-Jan-23 15:30N 49°26' W 002°28'1912.8
2020-Jan-23 14:00N 49°38' W 002°06'2818.4
2020-Jan-23 12:31N 50°03' W 001°47'2919.0
2020-Jan-23 11:00N 50°26' W 001°19'1818.6
2020-Jan-23 10:01N 50°41' W 001°03'8 2.0
2020-Jan-23 06:00N 50°48' W 001°07'611.4
2020-Jan-23 05:31N 50°44' W 001°02'103 9.8
2020-Jan-22 19:01N 49°10' W 002°08'18 4.6
2020-Jan-22 15:00N 49°28' W 002°13'3718.3
2020-Jan-22 13:00N 50°00' W 001°46'3819.0
2020-Jan-22 11:00N 50°32' W 001°12'18 8.9
2020-Jan-22 09:00N 50°49' W 001°06'0 0.0
2020-Jan-22 08:30N 50°49' W 001°06'31 6.2
2020-Jan-22 03:33N 50°20' W 001°24'5014.1
2020-Jan-22 00:01N 49°38' W 002°06'20 5.8
2020-Jan-21 20:30N 49°25' W 002°29'34 4.5
2020-Jan-21 13:00N 49°50' W 001°55'2919.0
2020-Jan-21 11:28N 50°15' W 001°30'2119.0
2020-Jan-21 10:22N 50°32' W 001°12'17 5.9
2020-Jan-21 07:30N 50°49' W 001°06'0 0.0
2020-Jan-21 07:00N 50°49' W 001°06'5810.4
2020-Jan-21 01:28N 49°57' W 001°47'816.7
2020-Jan-21 01:00N 49°51' W 001°54'34 8.5
2020-Jan-20 21:00N 49°27' W 002°32'23 9.3
2020-Jan-20 18:30N 49°11' W 002°07'0 0.0
2020-Jan-20 17:00N 49°11' W 002°07'17 8.6
2020-Jan-20 15:00N 49°27' W 002°14'2214.6
2020-Jan-20 13:31N 49°47' W 002°00'3117.7
2020-Jan-20 11:45N 50°14' W 001°35'1618.5
2020-Jan-20 10:53N 50°26' W 001°19'2216.2
2020-Jan-20 09:31N 50°47' W 001°06'2 3.8
2020-Jan-20 09:01N 50°49' W 001°06'0 0.0
2020-Jan-20 07:01N 50°49' W 001°06'0 0.0
2020-Jan-20 06:01N 50°49' W 001°06'0 0.0
2020-Jan-20 05:30N 50°49' W 001°06'0 0.0
2020-Jan-20 05:00N 50°49' W 001°06'0 0.0
2020-Jan-20 03:31N 50°49' W 001°06'0 0.0
2020-Jan-20 02:31N 50°49' W 001°06'0 0.0
2020-Jan-20 01:31N 50°49' W 001°06'0 0.0
2020-Jan-20 01:01N 50°49' W 001°06'0 0.0
2020-Jan-19 23:31N 50°49' W 001°06'0 0.0
2020-Jan-19 21:01N 50°49' W 001°06'0 0.0
2020-Jan-19 19:00N 50°49' W 001°06'0 0.0
2020-Jan-19 18:30N 50°49' W 001°06'0 0.0
2020-Jan-19 16:30N 50°49' W 001°06'0 0.0
2020-Jan-19 13:00N 50°49' W 001°06'0 0.0
2020-Jan-19 11:01N 50°49' W 001°06'0 0.0
2020-Jan-19 10:31N 50°49' W 001°06'0 0.0
2020-Jan-19 10:01N 50°49' W 001°06'5 3.3
2020-Jan-19 08:31N 50°44' W 001°04'5313.0
2020-Jan-19 04:27N 49°59' W 001°47'1212.3
2020-Jan-19 03:30N 49°50' W 001°58'3112.5
2020-Jan-19 01:00N 49°21' W 002°18'510.7
2020-Jan-19 00:31N 49°16' W 002°21'10 4.1
2020-Jan-18 21:58N 49°11' W 002°07'4 8.2
2020-Jan-18 21:30N 49°10' W 002°13'1616.2
2020-Jan-18 20:30N 49°23' W 002°27'5 5.2
2020-Jan-18 19:28N 49°27' W 002°32'3 2.4
2020-Jan-18 18:01N 49°26' W 002°27'713.6
2020-Jan-18 17:31N 49°30' W 002°18'1413.9
2020-Jan-18 16:31N 49°41' W 002°05'2614.9
2020-Jan-18 14:44N 50°03' W 001°43'5112.1
2020-Jan-18 10:28N 50°49' W 001°06'0 0.0
2020-Jan-18 09:58N 50°49' W 001°06'56 9.4
2020-Jan-18 03:56N 49°59' W 001°48'3417.8
2020-Jan-18 02:00N 49°29' W 002°13'1616.3
2020-Jan-18 01:00N 49°13' W 002°20'9 8.8
2020-Jan-17 23:58N 49°11' W 002°07'23 5.8
2020-Jan-17 19:58N 49°27' W 002°32'0 0.2
2020-Jan-17 18:30N 49°27' W 002°31'1414.2
2020-Jan-17 17:30N 49°34' W 002°11'1918.7
2020-Jan-17 16:30N 49°49' W 001°56'6713.4
2020-Jan-17 11:30N 50°49' W 001°07'1 0.2
2020-Jan-17 08:30N 50°49' W 001°06'9 5.8
2020-Jan-17 07:00N 50°40' W 001°04'6514.4
2020-Jan-17 02:30N 49°46' W 002°00'3618.2
2020-Jan-17 00:30N 49°12' W 002°19'16 2.2
2020-Jan-16 17:31N 49°28' W 002°23'917.9
2020-Jan-16 17:01N 49°33' W 002°12'6615.2
2020-Jan-16 12:38N 50°27' W 001°12'213.0
2020-Jan-16 12:30N 50°28' W 001°11'612.8
2020-Jan-16 12:00N 50°34' W 001°06'1312.6
2020-Jan-16 11:01N 50°46' W 001°06'2 1.5
2020-Jan-16 09:28N 50°49' W 001°06'0 0.0
2020-Jan-16 08:28N 50°49' W 001°06'5710.0
2020-Jan-16 02:46N 49°58' W 001°48'517.6
2020-Jan-16 02:30N 49°55' W 001°52'1818.0
2020-Jan-16 01:30N 49°39' W 002°06'2914.7
2020-Jan-15 23:30N 49°10' W 002°08'1 0.9
2020-Jan-15 22:27N 49°11' W 002°07'5 2.0
2020-Jan-15 20:00N 49°10' W 002°14'816.6
2020-Jan-15 19:30N 49°16' W 002°22'13 8.2
2020-Jan-15 17:58N 49°27' W 002°32'4411.1
2020-Jan-15 14:00N 49°59' W 001°44'3613.9
2020-Jan-15 11:26N 50°27' W 001°10'2211.0
2020-Jan-15 09:28N 50°49' W 001°06'0 0.0
2020-Jan-15 08:28N 50°49' W 001°06'0 0.0
2020-Jan-15 04:58N 50°49' W 001°06'0 0.0
2020-Jan-15 03:28N 50°49' W 001°06'0 0.0
2020-Jan-15 02:28N 50°49' W 001°06'0 0.0
2020-Jan-15 01:28N 50°49' W 001°06'  

Dump ship's entire track history